Regional Weather Roundup
Issued by NWS Charleston, SC

Current Version | Previous Version | Text Only | Print | Product List | Glossary Off
Versions: 1 2 3 4 5 6 7 8 9 10 11 12 13 14 15 16 17 18 19 20 21 22 23 24 25 26 27 28 29 30 31 32 33 34 35 36 37 38 39 40 41 42 43 44 45 46 47 48 49 50
000 ASUS42 KCHS 232327 RWRCHS REGIONAL WEATHER ROUNDUP NATIONAL WEATHER SERVICE CHARLESTON SC 700 PM EDT TUE MAY 23 2017 NOTE: "FAIR" INDICATES FEW OR NO CLOUDS BELOW 12,000 FEET WITH NO SIGNIFICANT WEATHER AND/OR OBSTRUCTIONS TO VISIBILITY. NOT ALL STATIONS ARE QUALITY CONTROLLED. USE DATA WITH CAUTION... ESPECIALLY DEWPOINT OBSERVATIONS. SCZ027-030-031-034>040-042>050-240000- ...SOUTHEAST SOUTH CAROLINA... CITY SKY/WX TMP DP RH WIND PRES REMARKS N CHARLESTON LGT RAIN 67 65 93 NE6 29.74F WATERFRONT PRK N/A 72 71 97 CALM 29.72F JOHNS ISLAND TSTM 68 68 100 VRB6G14 29.76R VSB 1/2 PINOPOLIS NOT AVBL MONCKS CORNER CLOUDY 66 64 94 CALM 29.73F SUMMERVILLE RAIN 68 66 94 E6 29.73F BEAUFORT MCAS TSTM 70 70 100 N5 29.73F BEAUFORT ARPT MOCLDY 70 70 100 CALM 29.73F HILTON HEAD IS RAIN 72 72 100 SW8 29.75S VSB 1 WALTERBORO LGT RAIN 64 64 100 SE8 29.74S ALLENDALE LGT RAIN 70 68 94 SE5 29.69F ...SOUTHERN MIDLANDS AND PEE DEE... CITY SKY/WX TMP DP RH WIND PRES REMARKS GEORGETOWN RAIN 70 68 94 CALM 29.77S KINGSTREE LGT RAIN 68 66 94 SE5 29.73F ORANGEBURG CLOUDY 69 68 96 VRB5 29.72F BARNWELL RAIN 70 70 100 SE6 29.70F AIKEN RAIN 64 64 100 S3 29.75F MANNING RAIN 70 70 100 S8 29.73F COLUMBIA RAIN 70 67 90 CALM 29.70F FOG SUMTER PTSUNNY 70 68 94 SE5 29.68F FLORENCE LGT RAIN 70 69 97 S6 29.72F MYRTLE BEACH PTSUNNY 72 70 94 W7 29.76F N MYRTLE BEACH LGT RAIN 72 70 93 SW8 29.74S $$ GAZ063-065-086>088-099>101-113>116-118-119-134>141-150-240000- ...SOUTHEAST GEORGIA... CITY SKY/WX TMP DP RH WIND PRES REMARKS SAVANNAH ARPT LGT RAIN 72 69 90 SW5 29.73F HUNTER AAF CLOUDY 72 72 100 CALM 29.71F FORT STEWART CLOUDY 73 70 90 SE3 29.70F STATESBORO RAIN 69 69 100 CALM 29.74R SYLVANIA LGT RAIN 68 68 100 CALM 29.73S CLAXTON HVY RAIN N/A N/A N/A CALM 29.72S VSB 1/4 ...CSRA...CENTRAL AND FAR SOUTHEAST GEORGIA... CITY SKY/WX TMP DP RH WIND PRES REMARKS THOMSON CLOUDY 68 66 93 SW5 29.76F AUGUSTA-BUSH LGT RAIN 71 67 87 CALM 29.71S FOG AUGUSTA-DANIEL LGT RAIN 70 65 84 S3 29.72F SWAINSBORO CLOUDY 70 70 100 S6 29.72S VIDALIA LGT RAIN 72 70 94 S5 29.71F EASTMAN CLOUDY 74 74 100 CALM 29.73S HAZLEHURST LGT RAIN 74 74 100 NW8G21 29.71S ALMA CLOUDY 78 74 87 SW6 29.71R WAYCROSS CLOUDY 82 76 84 SW14G20 29.72R JESUP MOCLDY 77 70 78 SW3 29.73R BAXLEY FAIR 75 75 100 SW3 29.71F THUNDER BRUNSWICK CLOUDY 79 75 89 S12 29.74F SAINT SIMONS CLOUDY 81 71 71 SW13 29.73F $$ SCZ027-028-034-036>038-045-046-048>050-GAZ119-141-240000- ...LAKE AND SUPPLEMENTAL COASTAL OBSERVATIONS... STATION/POSITION TIME TEMP WIND PRES WAVE SWELL AIR SEA DIR/SP/G HT/PER HT/PER/DIR (UTC) (F) (DEG/KT/KT) (MB) (FT/S) (FT/S/D) WINYAH BAY 2245 71 280/ 5 1007.0F LAKE MURRAY 2220 71 180/ 5/ 6 1005.1 ACE BASIN NERRS 2245 70 350/ 2 1007.0S FORT PULASKI 2300 73 250/ 3/ 5 1007.2 SAPELO ISLAND 2230 74 180/ 13 1007.0F $$ ANZ835-935-AMZ111-154-330-350-352-354-370-450-454-472-240000- ...C-MAN AND BUOY OBSERVATIONS... STATION/POSITION TIME TEMP WIND PRES WAVE SWELL AIR SEA DIR/SP/G HT/PER HT/PER/DIR (UTC) (F) (DEG/KT/KT) (MB) (FT/S) (FT/S/D) BUOY 41004 2310 78 78 200/ 16/ 21 1007.0 BUOY 41008 2250 78 78 170/ 21/ 23 1005.9F 4/ 6 2/ 70/ 9 FOLLY BEACH CMAN 2300 77 210/ 16/ 18 1007.9R CAPERS NEARSHORE 2308 78 76 220/ 16/ 21 1006.7S FRIPP NEARSHORE 2308 71 78 250/ 12/ 19 1006.5S STATION/POSITION TIME TEMP WIND PRES WAVE SWELL AIR SEA DIR/SP/G HT/PER HT/PER/DIR (UTC) (F) (DEG/KT/KT) (MB) (FT/S) (FT/S/D) 5E ST. MARYS GA 2300 79 N/A 3/ 6 FRYING PAN BUOY 2310 78 78 230/ 17/ 23 1007.4 BUOY 41025 2250 76 76 200/ 23/ 29 1006.5R 7/ 6 2/ 90/11 CAPE LOOKOUT NC 2300 73 220/ 17/ 23 1007.0R BUOY 41002 2250 77 76 190/ 17/ 19 1011.5F 5/ 6 2/320/13 BUOY 41010 2310 80 79 180/ 16/ 19 1011.3 ST AUGUSTINE FL 2300 84 79 230/ 10/ 12 1009.3F $$

USA.gov is the U.S. government's official web portal to all federal, state and local government web resources and services.